Time,TemperatureF,DewpointF,PressureIn,WindDirection,WindDirectionDegrees,WindSpeedMPH,WindSpeedGustMPH,Humidity,HourlyPrecipIn,Conditions,Clouds,dailyrainin,SolarRadiationWatts/m^2,SoftwareType,DateUTC
2013-05-18 00:02:00,41.0,37.0,-100.00,NE,48,0.0,0.0,84,0.00,,,0.00,1.000000,,2013-05-18 04:02:00,
2013-05-18 00:33:00,41.0,37.0,-100.00,NE,48,0.0,0.0,84,0.00,,,0.00,1.000000,,2013-05-18 04:33:00,
2013-05-18 00:43:00,41.0,37.0,-100.00,NE,48,0.0,0.0,84,0.00,,,0.00,1.000000,,2013-05-18 04:43:00,
2013-05-18 00:53:00,41.0,37.0,-100.00,NE,48,0.0,0.0,84,0.00,,,0.00,1.000000,,2013-05-18 04:53:00,
2013-05-18 01:02:00,41.0,37.0,-100.00,ENE,58,0.0,0.0,85,0.00,,,0.00,1.000000,,2013-05-18 05:02:00,
2013-05-18 01:22:00,41.0,37.0,-100.00,ENE,58,0.0,0.0,85,0.00,,,0.00,1.000000,,2013-05-18 05:22:00,
2013-05-18 01:32:00,41.0,37.0,-100.00,ENE,58,0.0,0.0,85,0.00,,,0.00,1.000000,,2013-05-18 05:32:00,
2013-05-18 01:42:00,41.0,37.0,-100.00,ENE,58,0.0,0.0,85,0.00,,,0.00,1.000000,,2013-05-18 05:42:00,
2013-05-18 01:52:00,41.0,37.0,-100.00,ENE,58,0.0,0.0,85,0.00,,,0.00,1.000000,,2013-05-18 05:52:00,
2013-05-18 02:32:00,40.0,36.0,-100.00,ESE,103,0.0,0.0,86,0.00,,,0.00,1.000000,,2013-05-18 06:32:00,
2013-05-18 02:42:00,40.0,36.0,-100.00,ESE,103,0.0,0.0,86,0.00,,,0.00,1.000000,,2013-05-18 06:42:00,
2013-05-18 02:52:00,40.0,36.0,-100.00,ESE,103,0.0,0.0,86,0.00,,,0.00,1.000000,,2013-05-18 06:52:00,
2013-05-18 03:01:00,40.0,36.0,-100.00,ESE,103,0.0,0.0,86,0.00,,,0.00,1.000000,,2013-05-18 07:01:00,
2013-05-18 03:02:00,39.0,36.0,-100.00,ENE,61,0.0,1.0,89,0.00,,,0.00,1.000000,,2013-05-18 07:02:00,
2013-05-18 03:32:00,39.0,36.0,-100.00,ENE,61,0.0,1.0,89,0.00,,,0.00,1.000000,,2013-05-18 07:32:00,
2013-05-18 03:43:00,39.0,36.0,-100.00,ENE,61,0.0,1.0,89,0.00,,,0.00,1.000000,,2013-05-18 07:43:00,
2013-05-18 03:53:00,39.0,36.0,-100.00,ENE,61,0.0,1.0,89,0.00,,,0.00,1.000000,,2013-05-18 07:53:00,
2013-05-18 04:02:00,38.0,36.0,-100.00,NE,49,0.0,0.0,91,0.00,,,0.00,1.000000,,2013-05-18 08:02:00,
2013-05-18 04:33:00,38.0,36.0,-100.00,NE,49,0.0,0.0,91,0.00,,,0.00,1.000000,,2013-05-18 08:33:00,
2013-05-18 04:42:00,38.0,36.0,-100.00,NE,49,0.0,0.0,91,0.00,,,0.00,1.000000,,2013-05-18 08:42:00,
2013-05-18 04:52:00,38.0,36.0,-100.00,NE,49,0.0,0.0,91,0.00,,,0.00,1.000000,,2013-05-18 08:52:00,
2013-05-18 05:02:00,38.0,36.0,-100.00,NE,56,0.0,0.0,92,0.00,,,0.00,1.000000,,2013-05-18 09:02:00,
2013-05-18 05:33:00,38.0,36.0,-100.00,NE,56,0.0,0.0,92,0.00,,,0.00,1.000000,,2013-05-18 09:33:00,
2013-05-18 05:43:00,38.0,36.0,-100.00,NE,56,0.0,0.0,92,0.00,,,0.00,1.000000,,2013-05-18 09:43:00,
2013-05-18 05:53:00,38.0,36.0,-100.00,NE,56,0.0,0.0,92,0.00,,,0.00,1.000000,,2013-05-18 09:53:00,
2013-05-18 06:02:00,38.0,36.0,-100.00,NE,42,0.0,0.0,92,0.00,,,0.00,12.000000,,2013-05-18 10:02:00,
2013-05-18 06:23:00,38.0,36.0,-100.00,NE,42,0.0,0.0,92,0.00,,,0.00,12.000000,,2013-05-18 10:23:00,
2013-05-18 06:33:00,38.0,36.0,-100.00,NE,42,0.0,0.0,92,0.00,,,0.00,12.000000,,2013-05-18 10:33:00,
2013-05-18 06:42:00,38.0,36.0,-100.00,NE,42,0.0,0.0,92,0.00,,,0.00,12.000000,,2013-05-18 10:42:00,
2013-05-18 06:53:00,38.0,36.0,-100.00,NE,42,0.0,0.0,92,0.00,,,0.00,12.000000,,2013-05-18 10:53:00,
2013-05-18 07:02:00,43.0,39.0,-100.00,NNE,18,0.0,0.0,85,0.00,,,0.00,56.000000,,2013-05-18 11:02:00,
2013-05-18 07:33:00,43.0,39.0,-100.00,NNE,18,0.0,0.0,85,0.00,,,0.00,56.000000,,2013-05-18 11:33:00,
2013-05-18 07:42:00,43.0,39.0,-100.00,NNE,18,0.0,0.0,85,0.00,,,0.00,56.000000,,2013-05-18 11:42:00,
2013-05-18 07:52:00,43.0,39.0,-100.00,NNE,18,0.0,0.0,85,0.00,,,0.00,56.000000,,2013-05-18 11:52:00,
2013-05-18 08:33:00,55.0,40.0,-100.00,SSW,197,0.0,0.0,57,0.00,,,0.00,229.000000,,2013-05-18 12:33:00,
2013-05-18 08:42:00,55.0,40.0,-100.00,SSW,197,0.0,0.0,57,0.00,,,0.00,229.000000,,2013-05-18 12:42:00,
2013-05-18 08:52:00,55.0,40.0,-100.00,SSW,197,0.0,0.0,57,0.00,,,0.00,229.000000,,2013-05-18 12:52:00,
2013-05-18 09:01:00,55.0,40.0,-100.00,SSW,197,0.0,0.0,57,0.00,,,0.00,229.000000,,2013-05-18 13:01:00,
2013-05-18 09:02:00,60.0,40.0,-100.00,SSE,162,0.0,0.0,47,0.00,,,-99.99,280.000000,,2013-05-18 13:02:00,
2013-05-18 09:33:00,60.0,40.0,-100.00,SSE,162,0.0,0.0,47,0.00,,,-99.99,280.000000,,2013-05-18 13:33:00,
2013-05-18 09:43:00,60.0,40.0,-100.00,SSE,162,0.0,0.0,47,0.00,,,-99.99,280.000000,,2013-05-18 13:43:00,
2013-05-18 09:53:00,60.0,40.0,-100.00,SSE,162,0.0,0.0,47,0.00,,,-99.99,280.000000,,2013-05-18 13:53:00,
2013-05-18 10:02:00,66.0,34.0,-100.00,South,186,3.0,6.0,30,0.00,,,0.00,611.000000,,2013-05-18 14:02:00,
2013-05-18 10:33:00,66.0,34.0,-100.00,South,186,3.0,6.0,30,0.00,,,0.00,611.000000,,2013-05-18 14:33:00,
2013-05-18 10:42:00,66.0,34.0,-100.00,South,186,3.0,6.0,30,0.00,,,0.00,611.000000,,2013-05-18 14:42:00,
2013-05-18 10:54:00,66.0,34.0,-100.00,South,186,3.0,6.0,30,0.00,,,0.00,611.000000,,2013-05-18 14:54:00,
2013-05-18 11:02:00,63.0,35.0,-100.00,South,172,3.0,9.0,35,0.00,,,0.00,475.000000,,2013-05-18 15:02:00,
2013-05-18 11:33:00,63.0,35.0,-100.00,South,172,3.0,9.0,35,0.00,,,0.00,475.000000,,2013-05-18 15:33:00,
2013-05-18 11:43:00,63.0,35.0,-100.00,South,172,3.0,9.0,35,0.00,,,0.00,475.000000,,2013-05-18 15:43:00,
2013-05-18 11:54:00,63.0,35.0,-100.00,South,172,3.0,9.0,35,0.00,,,0.00,475.000000,,2013-05-18 15:54:00,
2013-05-18 12:02:00,67.0,36.0,-100.00,WNW,294,3.0,8.0,32,0.00,,,0.00,725.000000,,2013-05-18 16:02:00,
2013-05-18 12:33:00,67.0,36.0,-100.00,WNW,294,3.0,8.0,32,0.00,,,0.00,725.000000,,2013-05-18 16:33:00,
2013-05-18 12:42:00,67.0,36.0,-100.00,WNW,294,3.0,8.0,32,0.00,,,0.00,725.000000,,2013-05-18 16:42:00,
2013-05-18 12:52:00,67.0,36.0,-100.00,WNW,294,3.0,8.0,32,0.00,,,0.00,725.000000,,2013-05-18 16:52:00,
2013-05-18 13:33:00,65.0,37.0,-100.00,South,176,4.0,9.0,36,0.00,,,-99.99,595.000000,,2013-05-18 17:33:00,
2013-05-18 13:42:00,65.0,37.0,-100.00,South,176,4.0,9.0,36,0.00,,,-99.99,595.000000,,2013-05-18 17:42:00,
2013-05-18 13:52:00,65.0,37.0,-100.00,South,176,4.0,9.0,36,0.00,,,-99.99,595.000000,,2013-05-18 17:52:00,
2013-05-18 14:01:00,65.0,37.0,-100.00,South,176,4.0,9.0,36,0.00,,,-99.99,595.000000,,2013-05-18 18:01:00,
2013-05-18 15:02:00,69.0,40.0,-100.00,SSE,163,4.0,11.0,35,-99.99,,,-99.99,713.000000,,2013-05-18 19:02:00,
2013-05-18 15:32:00,69.0,40.0,-100.00,SSE,163,4.0,11.0,35,-99.99,,,-99.99,713.000000,,2013-05-18 19:32:00,
2013-05-18 15:42:00,69.0,40.0,-100.00,SSE,163,4.0,11.0,35,-99.99,,,-99.99,713.000000,,2013-05-18 19:42:00,
2013-05-18 15:52:00,69.0,40.0,-100.00,SSE,163,4.0,11.0,35,-99.99,,,-99.99,713.000000,,2013-05-18 19:52:00,
2013-05-18 16:32:00,66.0,38.0,-100.00,SSE,158,5.0,12.0,35,0.00,,,-99.99,381.000000,,2013-05-18 20:32:00,
2013-05-18 16:42:00,66.0,38.0,-100.00,SSE,158,5.0,12.0,35,0.00,,,-99.99,381.000000,,2013-05-18 20:42:00,
2013-05-18 16:52:00,66.0,38.0,-100.00,SSE,158,5.0,12.0,35,0.00,,,-99.99,381.000000,,2013-05-18 20:52:00,
2013-05-18 17:01:00,66.0,38.0,-100.00,SSE,158,5.0,12.0,35,0.00,,,-99.99,381.000000,,2013-05-18 21:01:00,
2013-05-18 17:02:00,66.0,38.0,-100.00,South,180,5.0,13.0,36,0.00,,,0.00,367.000000,,2013-05-18 21:02:00,
2013-05-18 17:22:00,66.0,38.0,-100.00,South,180,5.0,13.0,36,0.00,,,0.00,367.000000,,2013-05-18 21:22:00,
2013-05-18 17:33:00,66.0,38.0,-100.00,South,180,5.0,13.0,36,0.00,,,0.00,367.000000,,2013-05-18 21:33:00,
2013-05-18 17:44:00,66.0,38.0,-100.00,South,180,5.0,13.0,36,0.00,,,0.00,367.000000,,2013-05-18 21:44:00,
2013-05-18 17:53:00,66.0,38.0,-100.00,South,180,5.0,13.0,36,0.00,,,0.00,367.000000,,2013-05-18 21:53:00,
2013-05-18 18:02:00,64.0,39.0,-100.00,SSE,161,4.0,10.0,40,0.00,,,0.00,182.000000,,2013-05-18 22:02:00,
2013-05-18 18:23:00,64.0,39.0,-100.00,SSE,161,4.0,10.0,40,0.00,,,0.00,182.000000,,2013-05-18 22:23:00,
2013-05-18 18:33:00,64.0,39.0,-100.00,SSE,161,4.0,10.0,40,0.00,,,0.00,182.000000,,2013-05-18 22:33:00,
2013-05-18 18:42:00,64.0,39.0,-100.00,SSE,161,4.0,10.0,40,0.00,,,0.00,182.000000,,2013-05-18 22:42:00,
2013-05-18 18:53:00,64.0,39.0,-100.00,SSE,161,4.0,10.0,40,0.00,,,0.00,182.000000,,2013-05-18 22:53:00,
2013-05-18 19:32:00,62.0,40.0,-100.00,South,173,3.0,10.0,44,0.00,,,0.00,101.000000,,2013-05-18 23:32:00,
2013-05-18 19:42:00,62.0,40.0,-100.00,South,173,3.0,10.0,44,0.00,,,0.00,101.000000,,2013-05-18 23:42:00,
2013-05-18 19:53:00,62.0,40.0,-100.00,South,173,3.0,10.0,44,0.00,,,0.00,101.000000,,2013-05-18 23:53:00,
2013-05-18 20:01:00,62.0,40.0,-100.00,South,173,3.0,10.0,44,0.00,,,0.00,101.000000,,2013-05-19 00:01:00,
2013-05-18 20:32:00,59.0,43.0,-100.00,East,100,0.0,7.0,55,0.00,,,-99.99,35.000000,,2013-05-19 00:32:00,
2013-05-18 20:42:00,59.0,43.0,-100.00,East,100,0.0,7.0,55,0.00,,,-99.99,35.000000,,2013-05-19 00:42:00,
2013-05-18 20:52:00,59.0,43.0,-100.00,East,100,0.0,7.0,55,0.00,,,-99.99,35.000000,,2013-05-19 00:52:00,
2013-05-18 21:01:00,59.0,43.0,-100.00,East,100,0.0,7.0,55,0.00,,,-99.99,35.000000,,2013-05-19 01:01:00,
2013-05-18 21:02:00,52.0,43.0,-100.00,NNW,345,0.0,2.0,72,0.00,,,0.00,2.000000,,2013-05-19 01:02:00,
2013-05-18 21:22:00,52.0,43.0,-100.00,NNW,345,0.0,2.0,72,0.00,,,0.00,2.000000,,2013-05-19 01:22:00,
2013-05-18 21:32:00,52.0,43.0,-100.00,NNW,345,0.0,2.0,72,0.00,,,0.00,2.000000,,2013-05-19 01:32:00,
2013-05-18 22:22:00,54.0,44.0,-100.00,SSW,197,2.0,8.0,68,0.00,,,0.00,1.000000,,2013-05-19 02:22:00,
2013-05-18 22:32:00,54.0,44.0,-100.00,SSW,197,2.0,8.0,68,0.00,,,0.00,1.000000,,2013-05-19 02:32:00,
2013-05-18 22:42:00,54.0,44.0,-100.00,SSW,197,2.0,8.0,68,0.00,,,0.00,1.000000,,2013-05-19 02:42:00,
2013-05-18 22:52:00,54.0,44.0,-100.00,SSW,197,2.0,8.0,68,0.00,,,0.00,1.000000,,2013-05-19 02:52:00,
2013-05-18 23:01:00,54.0,44.0,-100.00,SSW,197,2.0,8.0,68,0.00,,,0.00,1.000000,,2013-05-19 03:01:00,
2013-05-18 23:02:00,49.0,43.0,-100.00,NNE,28,0.0,4.0,81,0.00,,,0.00,1.000000,,2013-05-19 03:02:00,
2013-05-18 23:33:00,49.0,43.0,-100.00,NNE,28,0.0,4.0,81,0.00,,,0.00,1.000000,,2013-05-19 03:33:00,
2013-05-18 23:43:00,49.0,43.0,-100.00,NNE,28,0.0,4.0,81,0.00,,,0.00,1.000000,,2013-05-19 03:43:00,
2013-05-18 23:53:00,49.0,43.0,-100.00,NNE,28,0.0,4.0,81,0.00,,,0.00,1.000000,,2013-05-19 03:53:00,